Starlink 33780

operational
NORAD ID: 63459 Int'l Des: 2025-069 Owner: SPXS Country: US Constellation: starlink
LEOCIRCULAR

Starlink 33780について

説明を読み込み中...

リアルタイム位置

3D地球を読み込み中...

次回通過

高度履歴

Altitude vs Time

uPlot chart will show altitude changes over time

軌道要素

1 63459U 25069AC 25259.34579906 .00042116 00000-0 14251-2 0 9994
2 63459 53.1570 232.1414 0001100 87.1277 272.9850 15.30222221 26608
Epoch: Sep 16, 2025 • Age: 15 hours

現在のステータス

高度 478.4 km
速度 7.63 km/s
衛星直下点 -11.77°S, 73.23°E
打ち上げ日 Apr 4, 2025
運用期間 0.4 years
タイプ internet

技術仕様

分類 Payload
質量 575.00 kg
乾燥質量 530.00 kg
総質量 575.00 kg
長さ 0.30 m
直径 4.10 m
スパン 29.00 m
形状 Box + pan
製造者 SPXS
バスタイプ Starlink V2MO
フェーズステータス In Orbit
所有者/国 SPXS/US

大規模コンステレーション

Loading constellations...